Weather History for Mammoth, CA

Change the Weather History Date:

Wednesday, July 24, 2013

  Actual Average Record
Temperature  
Mean Temperature 65 °F -  
Max Temperature 84 °F 77 °F 89 °F (2003)
Min Temperature 46 °F 64 °F 37 °F (2014)
Growing Degree Days 15 (Base 50)    
Moisture  
Dew Point 43 °F    
Average Humidity 46    
Maximum Humidity 87    
Minimum Humidity 15    
Precipitation  
Precipitation 0.00 in - - ()
Sea Level Pressure  
Sea Level Pressure 30.29 in    
Wind  
Wind Speed 5 mph (WNW)    
Max Wind Speed 18 mph    
Max Gust Speed 24 mph    
Visibility 10 miles    
Events      
Averages and records for this station are not official NWS values.
T = Trace of Precipitation, MM = Missing Value Source: NWS Daily Summary

Daily Weather History Graph

Daily Weather History Graph

Search for Another Location

Airport:

Trip Planner

Search our weather history database for the weather conditions in past years. The results will help you decide how hot, cold, wet, or windy it might be!

Date:

Astronomy

Jul. 24, 2013 Rise Set
Actual Time 5:52 AM PDT 8:10 PM PDT
Civil Twilight 5:23 AM PDT 8:39 PM PDT
Nautical Twilight 4:46 AM PDT 9:16 PM PDT
Astronomical Twilight 4:06 AM PDT 9:56 PM PDT
Moon 9:23 PM PDT (7/24) 8:14 AM PDT (7/24)
Length of Visible Light 15h 16m
Length of Day
14h 17m
Waning Gibbous, 94% of the Moon is Illuminated
Jul 24
Waning Gibbous
Jul 29
Last Quarter
Aug 6
New
Aug 14
First Quarter
Aug 20
Full

Hourly Weather History & Observations

Time (PDT) Temp. Windchill Dew Point Humidity Pressure Visibility Wind Dir Wind Speed Gust Speed Precip Events Conditions
12:15 AM 59.0 °F - 46.4 °F 63% 30.33 in 10.0 mi SW 4.6 mph - N/A   Clear
12:35 AM 59.0 °F - 46.4 °F 63% 30.33 in 10.0 mi WNW 3.5 mph - N/A   Clear
12:55 AM 53.6 °F - 46.4 °F 77% 30.33 in 10.0 mi Calm Calm - N/A   Clear
1:15 AM 55.4 °F - 46.4 °F 72% 30.33 in 10.0 mi Calm Calm - N/A   Clear
1:35 AM 55.4 °F - 46.4 °F 72% 30.33 in 10.0 mi Calm Calm - N/A   Clear
1:55 AM 55.4 °F - 46.4 °F 72% 30.32 in 10.0 mi Calm Calm - N/A   Clear
2:15 AM 53.6 °F - 46.4 °F 77% 30.32 in 10.0 mi Calm Calm - N/A   Clear
2:35 AM 53.6 °F - 44.6 °F 72% 30.31 in 10.0 mi Calm Calm - N/A   Clear
2:55 AM 51.8 °F - 44.6 °F 76% 30.31 in 10.0 mi Calm Calm - N/A   Clear
3:15 AM 51.8 °F - 44.6 °F 76% 30.31 in 10.0 mi Calm Calm - N/A   Clear
3:35 AM 51.8 °F - 44.6 °F 76% 30.31 in 10.0 mi Calm Calm - N/A   Clear
3:55 AM 51.8 °F - 44.6 °F 76% 30.31 in 10.0 mi Calm Calm - N/A   Clear
4:15 AM 50.0 °F - 44.6 °F 82% 30.31 in 10.0 mi North 3.5 mph - N/A   Clear
4:35 AM 50.0 °F - 44.6 °F 82% 30.31 in 10.0 mi North 3.5 mph - N/A   Clear
4:55 AM 50.0 °F - 44.6 °F 82% 30.31 in 10.0 mi Calm Calm - N/A   Clear
5:15 AM 48.2 °F - 44.6 °F 87% 30.31 in 10.0 mi North 4.6 mph - N/A   Clear
5:35 AM 48.2 °F - 44.6 °F 87% 30.31 in 10.0 mi Calm Calm - N/A   Clear
5:55 AM 48.2 °F - 42.8 °F 82% 30.32 in 10.0 mi Calm Calm - N/A   Clear
6:15 AM 46.4 °F 44.3 °F 42.8 °F 87% 30.31 in 10.0 mi NW 4.6 mph - N/A   Clear
6:35 AM 46.4 °F - 42.8 °F 87% 30.31 in 10.0 mi Calm Calm - N/A   Clear
6:55 AM 50.0 °F - 44.6 °F 82% 30.31 in 10.0 mi Calm Calm - N/A   Clear
7:15 AM 53.6 °F - 46.4 °F 77% 30.31 in 10.0 mi Calm Calm - N/A   Clear
7:35 AM 57.2 °F - 46.4 °F 67% 30.32 in 10.0 mi Calm Calm - N/A   Clear
7:55 AM 59.0 °F - 48.2 °F 67% 30.32 in 10.0 mi Calm Calm - N/A   Clear
8:15 AM 62.6 °F - 48.2 °F 59% 30.32 in 10.0 mi Calm Calm - N/A   Clear
8:35 AM 66.2 °F - 48.2 °F 52% 30.32 in 10.0 mi SSE 8.1 mph - N/A   Clear
8:55 AM 68.0 °F - 48.2 °F 49% 30.32 in 7.0 mi ESE 4.6 mph - N/A   Clear
9:15 AM 69.8 °F - 48.2 °F 46% 30.32 in 5.0 mi ESE 5.8 mph - N/A   Haze
9:35 AM 71.6 °F - 46.4 °F 41% 30.32 in 7.0 mi ESE 6.9 mph - N/A   Clear
9:55 AM 73.4 °F - 44.6 °F 36% 30.32 in 10.0 mi SSE 5.8 mph - N/A   Clear
10:15 AM 75.2 °F - 44.6 °F 34% 30.32 in 10.0 mi SE 5.8 mph - N/A   Clear
10:35 AM 77.0 °F - 44.6 °F 32% 30.31 in 10.0 mi SSE 3.5 mph - N/A   Clear
10:55 AM 77.0 °F - 42.8 °F 29% 30.31 in 10.0 mi ESE 4.6 mph - N/A   Clear
11:15 AM 78.8 °F - 39.2 °F 24% 30.31 in 10.0 mi Calm Calm - N/A   Clear
11:35 AM 80.6 °F - 41.0 °F 24% 30.30 in 10.0 mi SE 3.5 mph - N/A   Scattered Clouds
11:55 AM 78.8 °F - 39.2 °F 24% 30.30 in 10.0 mi North 5.8 mph - N/A   Mostly Cloudy
12:15 PM 80.6 °F - 39.2 °F 23% 30.30 in 10.0 mi NNE 3.5 mph - N/A   Mostly Cloudy
12:35 PM 78.8 °F - 37.4 °F 23% 30.30 in 10.0 mi West 3.5 mph - N/A   Mostly Cloudy
12:55 PM 78.8 °F - 37.4 °F 23% 30.29 in 10.0 mi North 6.9 mph - N/A   Mostly Cloudy
1:15 PM 84.2 °F - 37.4 °F 19% 30.28 in 10.0 mi NW 9.2 mph - N/A   Scattered Clouds
1:35 PM 82.4 °F - 35.6 °F 19% 30.28 in 10.0 mi WNW 16.1 mph 21.9 mph N/A   Scattered Clouds
1:55 PM 82.4 °F - 33.8 °F 17% 30.28 in 10.0 mi WNW 12.7 mph 19.6 mph N/A   Scattered Clouds
2:15 PM 84.2 °F - 35.6 °F 18% 30.28 in 10.0 mi West 9.2 mph 20.7 mph N/A   Scattered Clouds
2:35 PM 84.2 °F - 32.0 °F 15% 30.28 in 10.0 mi West 15.0 mph 23.0 mph N/A   Scattered Clouds
2:55 PM 84.2 °F - 33.8 °F 16% 30.27 in 10.0 mi WNW 9.2 mph 21.9 mph N/A   Scattered Clouds
3:15 PM 84.2 °F - 35.6 °F 18% 30.27 in 10.0 mi NNW 3.5 mph 12.7 mph N/A   Clear
3:35 PM 84.2 °F - 35.6 °F 18% 30.26 in 10.0 mi West 13.8 mph 21.9 mph N/A   Clear
3:55 PM 84.2 °F - 35.6 °F 18% 30.26 in 10.0 mi West 11.5 mph 20.7 mph N/A   Clear
4:15 PM 84.2 °F - 37.4 °F 19% 30.25 in 7.0 mi West 13.8 mph 21.9 mph N/A   Clear
4:35 PM 84.2 °F - 37.4 °F 19% 30.25 in 7.0 mi West 6.9 mph 16.1 mph N/A   Clear
4:55 PM 84.2 °F - 39.2 °F 20% 30.24 in 7.0 mi WNW 18.4 mph - N/A   Clear
5:15 PM 82.4 °F - 42.8 °F 25% 30.24 in 7.0 mi WNW 17.3 mph 23.0 mph N/A   Clear
5:35 PM 82.4 °F - 42.8 °F 25% 30.24 in 10.0 mi WNW 17.3 mph 23.0 mph N/A   Clear
5:55 PM 80.6 °F - 44.6 °F 28% 30.24 in 10.0 mi WNW 17.3 mph 24.2 mph N/A   Clear
6:15 PM 80.6 °F - 44.6 °F 28% 30.24 in 10.0 mi WNW 16.1 mph 24.2 mph N/A   Clear
6:35 PM 80.6 °F - 44.6 °F 28% 30.24 in 10.0 mi WNW 15.0 mph 19.6 mph N/A   Clear
6:55 PM 78.8 °F - 44.6 °F 30% 30.24 in 10.0 mi WNW 16.1 mph 21.9 mph N/A   Clear
7:15 PM 77.0 °F - 44.6 °F 32% 30.25 in 10.0 mi WNW 15.0 mph 20.7 mph N/A   Mostly Cloudy
7:35 PM 75.2 °F - 44.6 °F 34% 30.25 in 10.0 mi WNW 15.0 mph 20.7 mph N/A   Overcast
7:55 PM 73.4 °F - 44.6 °F 36% 30.25 in 10.0 mi NW 9.2 mph 18.4 mph N/A   Scattered Clouds
8:15 PM 71.6 °F - 44.6 °F 38% 30.26 in 10.0 mi NNW 8.1 mph - N/A   Mostly Cloudy
8:35 PM 71.6 °F - 44.6 °F 38% 30.27 in 10.0 mi NW 12.7 mph - N/A   Overcast
8:55 PM 71.6 °F - 44.6 °F 38% 30.28 in 10.0 mi WNW 12.7 mph - N/A   Mostly Cloudy
9:15 PM 71.6 °F - 44.6 °F 38% 30.29 in 10.0 mi WSW 9.2 mph - N/A   Mostly Cloudy
9:35 PM 69.8 °F - 44.6 °F 40% 30.30 in 10.0 mi West 10.4 mph - N/A   Scattered Clouds
9:55 PM 69.8 °F - 44.6 °F 40% 30.30 in 10.0 mi West 10.4 mph - N/A   Mostly Cloudy
10:15 PM 69.8 °F - 44.6 °F 40% 30.30 in 10.0 mi West 6.9 mph - N/A   Mostly Cloudy
10:35 PM 68.0 °F - 44.6 °F 43% 30.30 in 10.0 mi West 9.2 mph - N/A   Overcast
10:55 PM 68.0 °F - 44.6 °F 43% 30.30 in 10.0 mi West 5.8 mph - N/A   Scattered Clouds
11:15 PM 68.0 °F - 44.6 °F 43% 30.30 in 10.0 mi WNW 8.1 mph - N/A   Mostly Cloudy
11:35 PM 66.2 °F - 44.6 °F 46% 30.31 in 10.0 mi West 8.1 mph - N/A   Overcast